Vorticity
nan nan nan nan nan nan nan nan nan nan nan nan nan nan nan nan nan nan nan nan nan nan nan nan nan nan nan nan nan nan nan nan nan nan nan nan nan nan nan nan nan nan nan nan nan nan nan nan nan nan nan nan nan nan nan nan nan nan nan nan nan nan nan nan nan nan nan nan nan
nan 8 8 9 9 9 8 8 8 9 9 9 9 9 9 9 9 9 9 9 9 8 9 9 9 8 7 8 9 10 10 10 10 10 11 11 10 10 10 10 9 8 8 9 10 10 10 10 11 10 10 10 10 10 10 9 9 10 10 8 9 12 14 16 13 13 13 15 nan
nan 7 8 9 9 8 8 8 10 11 9 8 9 9 8 9 9 9 9 8 8 9 9 9 8 8 8 8 9 9 9 9 9 10 10 10 10 9 9 9 8 9 9 10 9 7 6 7 10 10 9 8 7 9 11 11 10 11 13 14 11 11 12 13 14 14 15 15 nan
nan 8 8 9 10 8 7 10 12 10 8 7 8 8 8 9 9 9 8 8 9 9 9 9 8 8 8 8 7 7 8 8 9 10 10 9 8 8 9 8 9 10 10 9 8 7 7 8 10 10 8 7 8 9 9 9 10 10 13 15 12 11 10 10 12 13 13 12 nan
nan 7 9 10 10 8 8 11 12 9 7 7 8 9 9 9 9 9 9 9 9 8 7 7 8 7 7 7 7 8 9 9 10 10 9 8 8 9 9 8 9 9 10 10 10 10 10 11 11 10 9 10 11 10 7 5 8 9 9 10 10 10 10 9 10 11 10 10 nan
nan 8 9 10 10 8 9 11 10 8 8 9 11 11 10 9 9 9 9 9 8 8 8 8 8 8 8 8 9 9 9 9 9 8 7 8 9 9 8 9 9 10 10 10 11 12 13 14 13 11 11 12 11 9 7 9 10 10 9 7 9 9 10 8 9 10 9 7 nan
nan 9 9 10 9 9 11 11 9 8 8 9 10 10 10 10 9 9 8 8 8 8 9 9 8 8 8 8 8 8 8 7 7 8 9 9 8 8 9 9 10 10 10 10 11 12 12 14 13 12 11 12 12 12 11 11 9 9 8 7 8 10 10 9 7 8 8 6 nan
nan 9 9 9 9 10 11 11 10 10 9 9 9 9 9 8 8 8 8 9 9 8 9 8 7 7 7 7 7 8 8 8 8 8 9 8 8 8 9 9 9 9 9 9 9 8 9 11 10 9 9 11 11 11 11 9 7 6 6 7 7 8 9 9 7 6 6 6 nan
nan 9 9 9 9 9 9 10 10 11 11 11 9 8 7 7 7 8 9 9 9 8 8 7 7 7 8 8 8 9 9 9 8 8 8 8 8 8 8 9 9 8 8 9 8 8 9 9 8 6 6 6 5 4 5 6 6 6 7 10 8 6 5 6 5 5 5 8 nan
nan 9 8 8 8 8 8 7 8 9 9 9 7 7 6 7 8 8 9 9 8 8 7 7 7 8 9 10 10 9 9 9 8 8 7 7 7 7 7 7 7 7 7 7 9 11 12 11 8 6 4 3 2 2 3 6 6 6 7 8 6 4 3 3 4 6 7 8 nan
nan 9 8 8 8 8 7 6 6 6 7 7 7 7 7 7 8 8 8 8 8 7 7 7 8 8 9 10 10 9 9 8 8 7 7 6 7 7 7 6 7 7 7 7 9 12 13 11 8 7 5 4 7 9 9 8 8 8 6 3 3 4 6 4 5 7 10 9 nan
nan 8 8 9 9 8 7 7 7 7 7 7 7 7 7 8 8 8 8 8 8 9 9 8 8 8 9 9 9 9 9 8 7 8 9 9 9 9 9 8 9 9 9 10 11 11 10 8 7 7 8 8 10 11 10 9 9 9 8 6 6 8 9 8 7 8 9 9 nan
nan 9 8 8 8 8 7 8 8 8 7 7 7 7 7 7 8 9 9 9 9 9 9 9 9 10 9 8 8 8 8 9 9 9 9 10 10 10 10 10 10 11 12 13 11 9 8 8 8 9 9 10 8 7 7 9 9 10 10 10 9 9 9 10 10 9 8 8 nan
nan 9 9 9 8 7 7 8 8 8 7 7 7 7 7 8 8 9 10 10 9 9 9 10 11 10 9 8 8 8 8 8 9 9 9 10 10 10 10 10 10 11 11 12 10 9 7 7 8 9 9 9 7 6 7 8 8 9 10 10 10 10 10 11 11 11 11 10 nan
nan 8 8 8 8 8 8 7 8 8 8 8 7 8 8 8 8 8 9 9 9 10 10 10 9 9 8 8 9 9 9 9 9 9 10 10 10 10 10 9 9 9 9 8 9 9 9 8 8 8 8 8 8 8 8 8 8 8 9 9 9 10 10 11 11 11 11 10 nan
nan 7 7 8 9 9 9 8 9 9 8 8 7 7 8 8 8 8 8 9 10 9 9 8 8 9 9 9 10 10 10 10 10 10 10 10 10 9 9 8 9 8 8 7 7 8 9 10 10 9 8 8 8 9 9 9 9 9 9 9 9 9 9 10 10 10 9 9 nan
nan 7 8 8 8 9 9 9 9 9 8 7 7 8 8 8 8 8 8 8 9 7 7 7 8 8 8 9 10 10 11 10 10 10 10 9 9 8 8 9 9 9 8 8 8 8 8 8 8 9 10 10 9 9 9 9 10 10 10 10 9 9 8 9 9 9 10 10 nan
nan 8 8 8 8 8 8 9 9 8 8 7 7 8 8 8 7 7 8 8 7 7 7 7 8 8 7 7 9 9 10 9 9 8 8 8 9 9 10 9 9 9 9 10 10 9 10 9 9 9 10 10 10 10 10 10 10 10 10 10 10 10 9 8 8 9 10 10 nan
nan 7 8 8 8 8 8 8 8 8 8 7 8 8 8 7 7 7 7 8 7 7 7 8 8 8 8 8 8 9 9 9 8 8 8 9 9 9 10 10 10 10 10 11 11 11 10 10 11 11 11 10 10 10 10 10 10 11 11 11 11 11 10 10 10 9 9 9 nan
nan 7 7 8 8 8 8 8 8 8 8 8 8 8 8 8 8 7 7 8 8 8 8 9 9 9 9 9 9 9 10 10 9 10 10 10 10 9 10 10 11 11 12 12 11 11 10 11 11 11 11 11 10 10 10 11 11 11 11 12 12 11 10 11 11 10 9 9 nan
nan 8 8 8 8 8 8 8 8 8 8 8 8 8 8 8 8 8 8 9 9 9 9 10 10 9 10 10 10 11 12 10 9 10 11 11 10 11 11 11 11 12 12 12 12 12 12 11 11 11 11 12 11 11 11 11 12 12 11 10 11 11 11 10 10 10 10 10 nan
nan 8 8 8 8 8 8 8 8 8 8 8 8 8 8 8 9 9 9 10 10 10 10 11 11 10 10 10 11 11 12 10 9 10 11 11 11 11 11 11 11 11 11 12 13 13 14 14 14 14 14 14 14 14 13 12 13 14 14 12 11 12 13 13 14 15 16 16 nan
nan 7 7 7 8 8 8 8 8 8 8 8 8 8 9 9 9 10 10 11 11 10 11 12 11 10 10 10 10 10 10 9 9 10 10 10 10 10 11 12 12 12 13 14 14 14 15 16 17 17 17 17 17 17 16 14 14 13 13 12 13 13 14 14 14 15 16 17 nan
nan 8 7 8 9 8 8 8 9 9 8 9 9 9 9 10 10 10 10 10 10 10 11 11 9 9 10 10 10 10 10 10 10 10 10 10 10 11 13 14 15 16 16 14 10 9 11 13 14 14 14 14 14 14 14 13 11 9 9 9 10 11 11 9 8 7 8 9 nan
nan 8 9 10 9 9 9 9 9 9 9 9 9 10 10 10 10 10 10 10 10 10 10 10 10 10 11 11 11 11 10 11 10 10 10 11 11 11 13 14 15 16 15 10 6 6 6 5 5 7 8 9 9 10 11 11 10 8 8 8 9 10 10 9 8 8 7 8 nan
nan 8 9 9 9 9 9 9 9 9 9 9 9 10 10 10 10 9 9 9 9 9 10 11 11 11 11 10 10 10 11 11 10 9 9 10 10 11 12 13 13 13 11 5 4 4 3 2 2 3 5 7 8 9 11 12 11 10 10 10 11 10 10 10 10 10 10 11 nan
nan 9 9 9 9 9 9 9 9 9 9 9 9 9 10 10 9 9 9 9 9 10 11 12 12 12 12 10 9 9 9 9 9 10 10 10 10 11 12 12 12 10 6 3 3 4 5 5 5 6 7 9 9 10 11 11 12 13 14 13 12 11 10 11 12 13 12 11 nan
nan 9 9 9 9 9 9 9 8 8 9 9 9 9 9 8 9 9 9 9 9 11 12 12 12 12 11 9 8 8 8 9 11 11 12 10 10 11 12 12 11 8 5 5 7 8 8 9 10 10 10 9 12 14 14 13 14 15 15 15 14 13 13 13 14 14 13 12 nan
nan 9 9 9 9 8 8 8 8 8 9 9 8 9 8 8 8 8 8 9 10 11 12 12 11 10 8 6 7 9 10 11 12 11 10 9 10 12 12 11 11 10 8 9 10 10 10 10 11 11 11 10 12 12 13 13 13 13 14 15 14 13 12 12 10 9 10 12 nan
nan 9 9 9 9 8 8 8 8 8 9 8 8 8 8 8 8 8 9 9 10 11 11 9 8 6 6 7 9 10 11 11 11 10 9 10 11 12 12 12 11 11 10 11 11 11 10 11 11 12 12 12 12 12 11 10 9 11 11 11 10 9 9 8 8 7 7 8 nan
nan 9 9 9 8 8 8 8 8 8 8 8 7 8 8 8 9 9 9 10 10 10 10 8 7 7 8 10 10 10 10 10 10 10 10 11 11 11 12 12 12 12 10 9 10 10 10 11 11 12 12 14 16 13 10 9 9 9 9 7 6 6 8 10 11 9 7 5 nan
nan 9 9 8 8 8 8 8 8 8 7 8 8 8 8 8 9 9 9 10 11 10 10 10 9 10 10 11 11 10 10 10 10 11 11 11 11 11 12 13 14 13 10 8 10 10 11 12 13 13 14 16 16 13 10 10 12 12 11 9 8 8 7 7 8 9 9 8 nan
nan 9 9 8 8 8 8 8 8 8 7 8 8 8 9 9 9 9 10 10 10 10 11 11 11 11 11 11 11 11 11 11 11 11 11 11 11 12 13 15 15 12 9 8 9 10 11 13 14 15 16 19 20 17 15 13 13 13 12 11 12 11 10 8 7 8 9 10 nan
nan 9 8 8 8 8 8 8 8 8 8 8 9 9 10 10 9 10 10 11 10 11 11 11 11 11 11 11 11 11 11 10 10 10 11 12 12 12 14 16 13 8 7 7 9 10 11 13 14 15 18 24 25 21 18 15 13 11 10 9 10 11 12 12 11 10 10 10 nan
nan 8 8 7 8 8 8 8 8 8 8 8 10 10 11 11 10 10 11 11 11 11 11 11 11 11 11 11 11 11 11 10 10 10 11 12 12 12 13 14 11 6 5 7 8 9 11 12 13 15 21 29 27 21 18 18 16 14 11 11 12 12 12 13 13 13 13 13 nan
nan 8 8 8 8 8 8 8 8 8 9 9 10 10 11 11 11 11 11 10 11 11 11 11 11 11 10 11 12 11 11 10 11 11 11 11 11 12 12 13 10 7 6 6 7 8 10 11 12 16 24 29 24 19 18 19 18 16 15 15 15 14 14 15 14 14 13 13 nan
nan 8 8 8 8 8 8 8 8 8 9 10 10 10 10 10 11 10 10 10 11 11 11 10 10 10 11 11 12 11 11 11 12 11 10 10 10 11 11 12 11 9 6 5 6 8 9 11 13 18 26 27 20 17 17 17 16 15 15 16 16 15 16 17 17 16 15 12 nan
nan 8 8 8 8 8 8 8 8 9 9 10 10 10 11 11 10 9 10 10 10 11 11 10 10 11 11 12 12 10 10 11 12 11 10 10 10 10 10 11 11 10 6 3 5 7 9 10 12 18 26 25 18 18 18 16 13 12 13 15 15 14 15 15 16 16 15 13 nan
nan 8 8 8 8 8 8 9 9 9 9 10 10 10 11 11 11 10 10 10 10 11 10 10 10 12 12 13 12 10 10 11 13 11 10 9 9 9 10 11 11 9 5 3 5 7 9 10 12 16 25 25 20 19 17 14 12 12 12 13 13 14 15 14 14 14 13 13 nan
nan 8 8 8 8 8 9 9 10 10 10 9 9 10 10 10 11 10 11 11 11 11 11 9 10 12 13 14 12 9 9 12 13 11 10 9 8 8 10 11 10 8 6 4 4 7 8 9 11 15 25 26 20 19 17 13 12 12 12 12 13 14 14 14 13 13 12 14 nan
nan nan nan nan nan nan nan nan nan nan nan nan nan nan nan nan nan nan nan nan nan nan nan nan nan nan nan nan nan nan nan nan nan nan nan nan nan nan nan nan nan nan nan nan nan nan nan nan nan nan nan nan nan nan nan nan nan nan nan nan nan nan nan nan nan nan nan nan nan
CAPE
nan nan nan nan nan nan nan nan nan nan nan nan nan nan nan nan nan nan nan nan nan nan nan nan nan nan nan nan nan nan nan nan nan nan nan nan nan nan nan nan nan nan nan nan nan nan nan nan nan nan nan nan nan 0 0 0 1 0 0 1 2 5 5 7 5 5 6 5 2
nan nan nan nan nan nan nan nan nan nan nan nan nan nan nan nan nan nan nan nan nan nan nan nan nan nan nan nan nan nan nan nan nan nan nan nan nan nan nan nan nan nan nan 0 nan nan nan nan nan nan nan nan 0 1 1 3 5 2 2 3 1 4 4 6 7 7 8 7 5
nan nan nan nan nan nan nan nan nan nan nan nan nan nan nan nan nan nan nan nan nan nan nan nan nan nan nan nan nan nan nan nan nan nan nan nan nan nan nan nan nan 0 0 0 1 1 nan nan nan nan nan nan nan nan nan 1 2 5 5 6 4 4 4 4 5 5 7 7 8
nan nan nan nan nan nan nan nan nan nan nan nan nan nan nan nan nan nan nan nan nan nan nan nan nan nan nan nan nan nan nan nan nan nan nan nan nan nan nan nan nan nan nan 0 2 2 2 1 0 0 nan nan nan nan nan 0 4 5 5 6 6 7 7 6 7 7 7 7 10
nan nan nan nan nan nan nan nan nan nan nan nan nan nan nan nan nan nan nan nan nan nan nan nan nan nan nan nan nan nan nan nan nan nan nan nan nan nan nan nan nan nan nan 1 6 6 11 13 5 5 2 1 1 1 1 3 5 6 6 7 10 10 10 10 11 11 13 12 13
nan nan nan nan nan nan nan nan nan nan nan nan nan nan nan nan nan nan nan nan nan nan nan nan nan nan nan nan nan nan nan nan nan nan nan nan nan nan nan nan nan 1 1 4 10 10 16 24 13 13 9 4 10 5 5 5 7 8 8 8 9 11 11 14 17 17 17 16 20
nan nan nan nan nan nan nan nan nan nan nan nan nan nan nan nan nan nan nan nan nan nan nan nan nan nan nan nan nan nan nan nan nan nan nan nan nan nan nan nan 3 4 4 7 11 11 17 30 18 18 15 12 10 15 15 14 15 17 17 16 13 18 18 24 26 26 27 31 37
nan nan nan nan nan nan nan nan nan nan nan nan nan nan nan nan nan nan nan nan nan nan nan nan nan nan nan nan nan nan nan nan nan nan nan nan 0 4 4 5 6 8 8 10 15 15 27 25 21 21 23 24 23 27 27 29 37 51 51 44 37 41 41 57 62 62 49 54 60
nan nan nan nan nan nan nan nan nan nan nan nan nan nan nan nan nan nan nan nan nan nan nan nan nan nan nan nan 0 0 0 2 0 0 0 6 12 12 12 15 19 15 15 16 21 21 29 18 15 15 18 18 20 25 25 37 38 49 49 50 30 32 32 55 77 77 68 61 51
nan nan nan nan nan nan nan nan nan nan nan nan nan nan nan nan nan nan nan nan nan nan nan nan nan nan nan 1 4 4 6 9 7 12 12 16 20 21 21 15 19 13 13 14 13 13 17 15 16 16 21 17 18 21 21 25 26 25 25 19 25 41 41 49 46 46 61 52 51
nan nan nan nan nan nan nan nan nan nan nan nan nan nan nan nan nan nan nan nan nan nan nan nan 1 7 7 14 17 17 19 13 8 8 8 7 9 12 12 12 11 10 10 12 13 13 19 20 27 27 33 22 24 24 24 27 30 27 27 16 20 28 28 25 27 27 35 44 48
nan nan nan nan nan nan nan nan nan nan nan nan nan nan nan nan nan nan nan nan nan 1 1 6 13 17 17 9 11 11 8 11 10 9 9 10 9 10 10 13 15 15 15 16 17 17 24 30 33 33 36 30 25 27 27 30 29 30 30 25 26 27 27 22 24 24 19 26 30
nan nan nan nan nan nan nan nan nan nan nan nan nan nan nan nan nan 0 0 1 1 8 8 9 9 10 10 6 5 5 7 7 7 6 6 12 14 15 15 15 17 17 17 20 18 18 24 32 33 33 34 33 24 27 27 32 31 29 29 33 36 30 30 24 23 23 20 18 21
nan nan nan nan nan nan nan nan nan nan nan nan 0 2 2 nan 0 3 3 4 6 6 6 5 4 3 3 5 5 5 7 8 11 11 11 16 16 17 17 16 17 16 16 15 21 21 26 27 31 31 33 30 34 36 36 42 44 45 45 32 48 52 52 37 32 32 34 28 25
0 nan nan nan nan nan nan nan nan nan nan nan 0 4 4 5 6 5 5 5 7 1 1 1 1 2 2 5 7 7 9 8 14 19 19 22 20 19 19 18 19 20 20 18 23 23 28 32 30 30 37 42 46 51 51 52 50 45 45 45 49 43 43 39 35 35 36 38 42
4 4 4 2 0 0 nan nan nan nan nan nan 4 10 10 7 8 9 9 8 7 5 5 11 14 8 8 7 8 8 10 18 21 23 23 27 27 26 26 20 23 23 23 23 28 28 37 47 44 44 59 56 47 52 52 54 50 48 48 45 29 21 21 40 33 33 29 34 43
7 8 8 7 4 4 1 0 nan nan nan 0 8 6 6 6 7 10 10 15 7 10 10 13 11 14 14 14 14 14 22 24 28 26 26 28 28 24 24 22 18 22 22 29 40 40 42 31 45 45 56 51 48 51 51 52 49 51 51 38 32 26 26 31 37 37 35 42 41
2 1 1 0 0 0 3 5 5 5 5 5 6 5 5 7 15 15 15 12 16 17 17 16 17 20 20 22 22 22 24 28 30 31 31 31 28 41 41 34 44 61 61 60 60 60 62 51 64 64 69 70 66 61 61 56 55 51 51 38 46 46 46 39 41 41 34 39 41
6 7 7 7 4 4 3 4 6 6 7 7 9 13 13 14 14 16 16 17 15 16 16 17 18 22 22 24 26 26 24 29 34 34 34 35 33 41 41 51 34 40 40 46 60 60 54 59 62 62 72 76 74 66 66 62 52 61 61 50 55 60 60 56 51 51 42 39 51
5 9 9 7 8 8 6 5 7 7 7 9 13 14 14 14 17 18 18 18 15 17 17 18 22 23 23 27 29 29 29 27 37 35 35 37 35 34 34 37 47 58 58 56 44 44 66 64 53 53 68 77 73 67 67 58 45 46 46 53 59 69 69 66 60 60 59 58 55
6 8 8 7 7 7 7 7 8 8 11 13 15 14 14 14 16 16 16 14 14 18 18 19 21 26 26 27 30 30 31 27 34 35 35 37 34 28 28 33 59 66 66 47 56 56 68 55 47 47 70 76 80 73 73 65 70 72 72 70 63 67 67 58 61 61 60 59 61
5 8 8 8 7 7 7 9 12 12 13 14 14 13 13 14 17 16 16 15 16 13 13 12 14 20 20 20 24 24 28 26 36 33 33 38 41 37 37 46 47 48 48 61 59 59 73 73 71 71 74 78 88 79 79 75 79 68 68 61 62 73 73 72 67 67 66 57 57
0 2 2 8 8 8 7 10 14 14 14 12 11 12 12 16 17 15 15 15 16 13 13 16 14 17 17 21 22 22 24 26 33 33 33 42 45 58 58 53 53 53 53 58 67 67 70 73 67 67 70 70 62 56 56 55 46 47 47 44 43 49 49 54 55 55 61 60 53
0 1 1 2 9 9 12 14 13 13 14 11 11 15 15 16 15 16 16 17 19 22 22 27 19 17 17 22 22 22 25 27 28 31 31 42 51 55 55 52 58 41 41 59 55 55 44 42 50 50 46 41 44 49 49 48 44 41 41 39 37 35 35 40 40 40 36 34 36
3 4 4 4 12 12 15 13 13 13 10 10 11 17 17 15 17 18 18 17 17 17 17 17 21 24 24 23 23 23 28 27 28 30 30 34 39 43 43 48 42 60 60 51 25 25 22 17 27 27 26 34 42 47 47 52 45 47 47 40 37 37 37 37 38 38 37 41 39
6 9 9 12 14 14 12 12 10 10 9 11 13 16 16 14 16 15 15 14 14 15 15 19 22 22 22 25 28 28 27 28 31 39 39 39 34 34 34 37 64 62 62 35 23 23 19 14 3 3 7 35 40 41 41 38 33 32 32 33 32 37 37 36 39 39 42 31 38
10 12 12 15 12 12 12 11 9 9 10 12 14 15 15 12 14 12 12 13 14 18 18 23 22 17 17 25 31 31 30 26 33 38 38 40 34 31 31 24 41 67 67 34 15 15 12 11 7 7 7 31 38 35 35 27 34 39 39 34 32 35 35 33 25 25 22 25 33
11 13 13 13 12 12 14 13 12 12 14 14 11 11 11 10 10 13 13 14 16 18 18 17 18 14 14 13 23 23 34 30 27 37 37 42 51 37 37 28 36 35 35 22 15 15 15 16 15 15 14 19 37 39 39 35 39 46 46 43 41 33 33 27 18 18 17 17 20
11 12 12 13 13 13 13 16 16 16 14 12 9 9 9 10 12 12 12 14 15 8 8 5 11 10 10 9 17 17 23 24 31 30 30 46 45 28 28 26 23 22 22 14 16 16 17 19 19 19 19 22 32 36 36 37 34 32 32 34 29 22 22 18 16 16 14 10 13
11 12 12 12 13 13 13 15 15 15 10 9 9 12 12 11 12 13 13 16 9 2 2 3 5 9 9 13 16 16 16 16 28 32 32 57 38 38 38 20 25 24 24 15 16 16 18 18 17 17 17 19 30 32 32 34 30 20 20 17 16 17 17 16 14 14 11 9 10
12 11 11 11 10 10 12 14 12 12 8 9 12 12 12 12 12 8 8 6 3 1 1 2 8 12 12 7 9 9 10 15 22 33 33 37 28 24 24 15 25 23 23 15 16 16 18 20 19 19 17 16 26 33 33 36 29 17 17 15 15 15 15 14 12 12 10 7 8
12 12 12 10 9 9 9 13 11 11 9 10 12 12 12 12 3 0 0 0 1 1 1 1 9 7 7 5 7 7 8 17 25 37 37 30 28 21 21 23 26 20 20 15 16 16 20 19 19 19 16 13 20 40 40 34 25 19 19 15 20 17 17 17 12 12 7 6 7
12 11 11 10 9 9 9 12 12 12 9 12 12 15 15 9 0 4 4 2 0 1 1 1 8 6 6 5 6 6 10 26 34 24 24 26 26 18 18 17 28 17 17 16 19 19 18 18 18 18 16 12 20 45 45 35 25 19 19 16 17 14 14 11 9 9 8 11 14
12 11 11 10 9 9 9 11 12 12 10 12 13 12 12 8 5 9 9 0 nan 0 0 1 4 5 5 5 8 8 18 33 33 29 29 27 24 20 20 26 49 23 23 17 18 18 19 20 19 19 17 10 26 36 36 33 25 20 20 16 13 11 11 13 14 14 17 21 24
12 10 10 9 9 9 10 10 13 13 13 12 15 9 9 6 5 nan nan nan nan nan nan 2 3 8 8 12 13 13 23 45 54 45 45 42 32 24 24 29 38 16 16 15 16 16 18 20 19 19 20 9 27 36 36 30 21 20 20 19 16 21 21 22 24 24 27 29 28
12 11 11 12 12 12 12 10 12 12 13 12 12 6 6 nan nan nan nan nan nan nan nan 2 5 8 8 11 22 22 25 44 51 49 49 40 33 29 29 27 24 16 16 16 17 17 17 20 22 22 18 18 31 36 36 28 23 23 23 20 19 21 21 23 26 26 27 29 28
14 13 13 13 14 14 12 11 11 11 12 12 8 5 5 nan nan nan nan nan nan nan nan 1 3 8 8 11 19 19 22 32 41 37 37 37 34 27 27 22 22 14 14 16 16 16 17 22 23 23 22 25 31 27 27 25 23 23 23 21 18 19 19 25 29 29 28 27 29
12 11 11 12 11 11 12 13 12 12 11 13 2 1 1 nan nan nan nan nan nan nan nan 0 2 7 7 10 19 19 23 31 31 34 34 34 32 24 24 18 21 17 17 14 15 15 18 20 23 23 21 22 22 22 22 22 24 22 22 17 15 16 16 17 15 15 22 22 7
14 14 14 13 12 12 13 14 12 12 13 7 1 nan nan nan nan nan nan 0 nan nan nan 0 2 13 13 14 19 19 34 34 27 36 36 35 32 26 26 21 24 21 21 15 15 15 17 21 22 22 21 19 19 20 20 21 22 18 18 14 11 11 11 13 12 12 14 21 7
14 14 14 14 14 14 16 15 13 13 10 3 1 1 1 nan nan nan nan 1 nan 0 0 0 3 13 13 13 17 17 24 26 35 29 29 33 31 20 20 23 22 16 16 13 14 14 15 20 22 22 23 17 19 20 20 20 20 17 17 14 10 9 9 9 12 12 13 18 8
17 19 19 13 13 13 14 14 12 12 6 5 4 nan nan nan nan 2 2 nan nan 0 0 0 3 8 8 13 13 13 23 23 29 34 34 28 26 17 17 24 21 16 16 14 13 13 16 19 22 22 24 20 18 19 19 19 16 13 13 10 8 8 8 8 12 12 17 22 21